Regional Weather Roundup
Issued by NWS

Home | Current Version | Previous Version | Text Only | Print | Product List | Glossary Off
Versions: 1 2 3 4 5 6 7 8 9 10 11 12 13 14 15 16 17 18 19 20 21 22 23 24 25 26 27 28 29 30 31 32 33 34 35 36 37 38 39 40 41 42 43 44 45 46 47 48 49 50

000
ASUS45 KPSR 301310
RWRAZ

ARIZONA HOURLY REGIONAL WEATHER ROUNDUP
NATIONAL WEATHER SERVICE PHOENIX AZ
600 AM MST THU JUL 30 2015

NOTE: FAIR INDICATES FEW OR NO CLOUDS BELOW 12,000 FEET WITH NO
SIGNIFICANT WEATHER AND/OR OBSTRUCTIONS TO VISIBILITY.

AZZ001>003-036-301400-
NORTHWEST ARIZONA

CITY           SKY/WX    TMP DP  RH WIND       PRES   REMARKS
BULLHEAD CITY  CLOUDY    91  61  35 CALM      29.94R
KINGMAN        CLOUDY    77  57  50 SE7       30.15R
$$

AZZ004>008-015-016-018-301400-
NORTH CENTRAL ARIZONA

CITY           SKY/WX    TMP DP  RH WIND       PRES   REMARKS
GRAND CANYON   CLEAR     54  45  71 CALM      30.40R
WILLIAMS       MOCLDY    59  48  67 SE6       30.46R
PRESCOTT       CLOUDY    66  57  72 S3        30.27R
FLAGSTAFF      PTCLDY    51  49  92 CALM      30.42R
PAYSON         CLOUDY    66  59  77 CALM      30.30R
PAGE           CLEAR     74  56  53 SW5       30.23R
$$

AZZ009>014-017-301400-
NORTHEAST ARIZONA

CITY           SKY/WX    TMP DP  RH WIND       PRES   REMARKS
WINSLOW        CLOUDY    66  59  78 SW3       30.29R
SAINT JOHNS    CLOUDY    63  59  87 E5        30.32R
SHOW LOW       MOCLDY    55  55 100 CALM      30.38R
$$

AZZ023-301400-
GREATER PHOENIX AREA

CITY           SKY/WX    TMP DP  RH WIND       PRES   REMARKS
PHOENIX        MOCLDY    85  64  49 E8        29.98R
DEER VALLEY    MOCLDY    83  62  49 NE5       30.01R
SCOTTSDALE     CLOUDY    84  63  49 CALM      30.03R
MESA-FALCON    MOCLDY    82  61  47 N9        30.01
MESA-GATEWAY   MOCLDY    79  63  57 MISG      30.02R
CHANDLER       MOCLDY    81  64  57 NE6       30.00
$$

AZZ027-028-301400-
SOUTHWEST MARICOPA COUNTY AND PINAL COUNTY

CITY           SKY/WX    TMP DP  RH WIND       PRES   REMARKS
CASA GRANDE    PTCLDY    81  64  57 E7        30.00R
GILA BEND      FAIR      80  67  65 S5        29.95R
$$

AZZ503-504-507>509-301400-
SOUTHEAST ARIZONA

CITY           SKY/WX    TMP DP  RH WIND       PRES   REMARKS
TUCSON         CLEAR     75  62  64 E10       30.11R
DAVIS-MONTHAN  CLEAR     72  64  75 SE7       30.10R
RYAN FIELD     CLEAR     75  68  78 E6        30.10
NOGALES        PTCLDY    66  61  84 NE6       30.18R
DOUGLAS          N/A    N/A N/A N/A MISG      30.22R
SAFFORD        MOCLDY    71  65  81 E5        30.17R
$$

AZZ020-021-025-026-031-301400-
SOUTHWEST ARIZONA

CITY           SKY/WX    TMP DP  RH WIND       PRES   REMARKS
YUMA           PTCLDY    86  66  51 S3        29.90R
$$

CAZ031-033-041-043-047-048-061-301400-
SOUTHERN CALIFORNIA

CITY           SKY/WX    TMP DP  RH WIND       PRES   REMARKS
DOWNTOWN L.A.  CLEAR     68  63  84 CALM      29.97R
L.A. AIRPORT   PTCLDY    68  64  87 NW7       29.98R
SAN DIEGO      MOCLDY    71  64  78 CALM      29.98R
BURBANK        MOCLDY    71  62  73 E6        29.98R
ONTARIO        MOCLDY    71  62  73 CALM      29.98S
RIVERSIDE      PTCLDY    72  63  73 CALM      29.98S
PALM SPRINGS   CLOUDY    90  65  43 N6        29.94R
EL CENTRO NAS  PTCLDY    81  66  60 NE6       29.89R
IMPERIAL       CLEAR     84  70  62 E6        29.87R
BLYTHE         MOCLDY    88  62  41 SE7       29.91R
NEEDLES        CLOUDY    93  58  30 CALM      29.94R
$$

NVZ020-UTZ003-301400-
SOUTHERN NEVADA-UTAH

CITY           SKY/WX    TMP DP  RH WIND       PRES   REMARKS
LAS VEGAS      CLOUDY    88  50  27 W5        29.99R
SALT LAKE CITY PTCLDY    61  38  42 NE5       30.28R
$$

NMZ009-TXZ055-301400-
NEW MEXICO-WEST TEXAS

CITY           SKY/WX    TMP DP  RH WIND       PRES   REMARKS
ALBUQUERQUE    CLOUDY    65  60  84 N3        30.38R
EL PASO        CLOUDY    69  65  86 NE10      30.27R
$$


........................KEY........................
SKY/WX - SKY CONDITION/WEATHER
TMP    - TEMPERATURE IN FAHRENHEIT
DP     - DEW POINT IN FAHRENHEIT
RH     - RELATIVE HUMIDITY IN PERCENT
WIND   - DIRECTION AND SPEED IN MILES PER HOUR (MPH)
VRB    - VARIABLE WIND DIRECTION
PRES   - MEAN SEA LEVEL PRESSURE IN INCHES OF MERCURY
         F - FALLING PRESSURE   R - RISING PRESSURE
         S - STEADY PRESSURE
VSB    - VISIBILITY IN MILES
HX     - HEAT INDEX IN FAHRENHEIT
WCI    - WIND CHILL INDEX IN FAHRENHEIT
TC     - TEMPERATURE IN CELSIUS WHICH IS ALSO KNOWN AS
         TEMPERATURE IN CENTIGRADE
AFB    - AIR FORCE BASE
         LUKE AFB IS LUKE AIR FORCE BASE
         DAVIS-MONTHAN IS DAVIS-MONTHAN AIR FORCE BASE
NAS    - NAVAL AIR STATION
         EL CENTRO NAS IS EL CENTRO NAVAL AIR STATION
N/A    - NOT AVAILABLE



USA.gov is the U.S. government's official web portal to all federal, state and local government web resources and services.